TimeCST,TemperatureF,Dew PointF,Humidity,Sea Level PressureIn,VisibilityMPH,Wind Direction,Wind SpeedMPH,Gust SpeedMPH,PrecipitationIn,Events,Conditions,WindDirDegrees,DateUTC
12:15 AM,51.8,37.4,58,30.11,10.0,South,11.5,-,N/A,,Clear,170,2012-11-18 06:15:00
12:35 AM,50.0,37.4,62,30.11,10.0,South,12.7,-,N/A,,Clear,170,2012-11-18 06:35:00
12:55 AM,50.0,37.4,62,30.10,10.0,South,12.7,-,N/A,,Clear,170,2012-11-18 06:55:00
1:15 AM,50.0,37.4,62,30.10,10.0,South,11.5,-,N/A,,Clear,170,2012-11-18 07:15:00
1:35 AM,50.0,37.4,62,30.10,10.0,SSE,11.5,-,N/A,,Clear,160,2012-11-18 07:35:00
1:55 AM,50.0,37.4,62,30.09,10.0,SSE,11.5,-,N/A,,Clear,160,2012-11-18 07:55:00
2:15 AM,50.0,35.6,58,30.08,10.0,South,10.4,-,N/A,,Clear,170,2012-11-18 08:15:00
2:35 AM,50.0,37.4,62,30.08,10.0,South,11.5,-,N/A,,Clear,170,2012-11-18 08:35:00
2:55 AM,50.0,37.4,62,30.08,10.0,South,11.5,-,N/A,,Clear,170,2012-11-18 08:55:00
3:15 AM,48.2,35.6,62,30.08,10.0,South,11.5,-,N/A,,Clear,170,2012-11-18 09:15:00
3:35 AM,48.2,35.6,62,30.06,10.0,South,10.4,-,N/A,,Clear,170,2012-11-18 09:35:00
3:55 AM,46.4,35.6,66,30.06,10.0,South,10.4,-,N/A,,Clear,170,2012-11-18 09:55:00
4:15 AM,46.4,35.6,66,30.06,10.0,South,10.4,-,N/A,,Clear,170,2012-11-18 10:15:00
4:35 AM,44.6,35.6,71,30.05,10.0,SSE,13.8,-,N/A,,Clear,160,2012-11-18 10:35:00
4:55 AM,44.6,35.6,71,30.05,10.0,SSE,15.0,-,N/A,,Clear,160,2012-11-18 10:55:00
5:15 AM,44.6,35.6,71,30.05,10.0,SSE,13.8,-,N/A,,Clear,160,2012-11-18 11:15:00
5:35 AM,44.6,35.6,71,30.05,10.0,SSE,13.8,-,N/A,,Clear,160,2012-11-18 11:35:00
5:55 AM,44.6,33.8,66,30.05,10.0,SSE,15.0,-,N/A,,Clear,160,2012-11-18 11:55:00
6:15 AM,44.6,33.8,66,30.05,10.0,South,12.7,-,N/A,,Clear,170,2012-11-18 12:15:00
6:35 AM,44.6,33.8,66,30.05,10.0,SSE,11.5,-,N/A,,Clear,160,2012-11-18 12:35:00
6:55 AM,42.8,33.8,70,30.04,10.0,SSE,13.8,-,N/A,,Clear,160,2012-11-18 12:55:00
7:15 AM,42.8,33.8,70,30.05,10.0,SSE,12.7,-,N/A,,Clear,160,2012-11-18 13:15:00
7:35 AM,42.8,33.8,70,30.05,10.0,SSE,13.8,-,N/A,,Clear,160,2012-11-18 13:35:00
7:55 AM,44.6,33.8,66,30.05,10.0,SSE,11.5,-,N/A,,Clear,160,2012-11-18 13:55:00
8:15 AM,44.6,33.8,66,30.05,10.0,SSE,12.7,-,N/A,,Clear,160,2012-11-18 14:15:00
8:35 AM,44.6,33.8,66,30.05,10.0,South,13.8,-,N/A,,Clear,170,2012-11-18 14:35:00
8:55 AM,48.2,33.8,58,30.05,10.0,South,16.1,-,N/A,,Clear,170,2012-11-18 14:55:00
9:15 AM,50.0,35.6,58,30.04,10.0,South,19.6,-,N/A,,Clear,170,2012-11-18 15:15:00
9:35 AM,51.8,35.6,54,30.04,10.0,South,19.6,25.3,N/A,,Clear,180,2012-11-18 15:35:00
9:55 AM,53.6,37.4,54,30.04,10.0,South,21.9,26.5,N/A,,Clear,180,2012-11-18 15:55:00
10:15 AM,55.4,37.4,51,30.05,10.0,South,17.3,25.3,N/A,,Clear,190,2012-11-18 16:15:00
10:35 AM,55.4,37.4,51,30.04,10.0,South,20.7,26.5,N/A,,Clear,180,2012-11-18 16:35:00
10:55 AM,55.4,39.2,54,30.04,10.0,South,20.7,27.6,N/A,,Clear,190,2012-11-18 16:55:00
11:15 AM,59.0,39.2,48,30.04,10.0,South,20.7,26.5,N/A,,Clear,190,2012-11-18 17:15:00
11:35 AM,60.8,39.2,45,30.04,10.0,South,17.3,-,N/A,,Clear,190,2012-11-18 17:35:00
11:55 AM,62.6,39.2,42,30.02,10.0,South,18.4,25.3,N/A,,Clear,190,2012-11-18 17:55:00
12:15 PM,64.4,39.2,40,30.00,10.0,South,20.7,27.6,N/A,,Clear,190,2012-11-18 18:15:00
12:35 PM,66.2,37.4,35,29.99,10.0,SSW,20.7,25.3,N/A,,Clear,200,2012-11-18 18:35:00
12:55 PM,68.0,37.4,33,29.99,10.0,SSW,20.7,27.6,N/A,,Clear,210,2012-11-18 18:55:00
1:15 PM,69.8,37.4,31,29.98,10.0,SSW,18.4,25.3,N/A,,Clear,200,2012-11-18 19:15:00
1:35 PM,71.6,37.4,29,29.98,10.0,SSW,21.9,28.8,N/A,,Clear,200,2012-11-18 19:35:00
1:55 PM,71.6,35.6,27,29.97,10.0,SSW,17.3,25.3,N/A,,Clear,200,2012-11-18 19:55:00
2:15 PM,71.6,33.8,25,29.98,10.0,SW,26.5,32.2,N/A,,Clear,220,2012-11-18 20:15:00
2:35 PM,73.4,35.6,25,29.97,10.0,SW,20.7,28.8,N/A,,Clear,220,2012-11-18 20:35:00
2:55 PM,73.4,35.6,25,29.97,10.0,SW,25.3,33.4,N/A,,Clear,220,2012-11-18 20:55:00
3:15 PM,73.4,32.0,22,29.98,10.0,SW,23.0,27.6,N/A,,Clear,230,2012-11-18 21:15:00
3:35 PM,71.6,32.0,23,29.98,10.0,WSW,21.9,29.9,N/A,,Scattered Clouds,240,2012-11-18 21:35:00
3:55 PM,71.6,33.8,25,29.98,10.0,SW,18.4,25.3,N/A,,Mostly Cloudy,230,2012-11-18 21:55:00
4:15 PM,69.8,35.6,28,29.98,10.0,SW,15.0,-,N/A,,Overcast,220,2012-11-18 22:15:00
4:35 PM,69.8,35.6,28,29.98,10.0,South,8.1,-,N/A,,Overcast,170,2012-11-18 22:35:00
4:55 PM,68.0,41.0,37,29.98,10.0,SSE,9.2,-,N/A,,Overcast,160,2012-11-18 22:55:00
5:15 PM,64.4,41.0,42,29.98,10.0,SSE,6.9,-,N/A,,Scattered Clouds,160,2012-11-18 23:15:00
5:35 PM,64.4,41.0,42,29.99,10.0,South,11.5,-,N/A,,Clear,170,2012-11-18 23:35:00
6:15 PM,62.6,42.8,48,29.99,10.0,South,11.5,-,N/A,,Scattered Clouds,170,2012-11-19 00:15:00
6:35 PM,60.8,42.8,52,30.00,10.0,South,12.7,-,N/A,,Clear,170,2012-11-19 00:35:00
6:55 PM,60.8,44.6,55,30.00,10.0,South,15.0,18.4,N/A,,Clear,180,2012-11-19 00:55:00
7:15 PM,60.8,44.6,55,30.01,10.0,South,13.8,19.6,N/A,,Clear,180,2012-11-19 01:15:00
7:35 PM,59.0,46.4,63,30.02,10.0,South,11.5,-,N/A,,Clear,180,2012-11-19 01:35:00
7:55 PM,57.2,44.6,63,30.03,10.0,South,11.5,-,N/A,,Clear,180,2012-11-19 01:55:00
8:15 PM,55.4,44.6,67,30.03,10.0,South,10.4,-,N/A,,Clear,180,2012-11-19 02:15:00
8:35 PM,55.4,44.6,67,30.03,10.0,South,10.4,-,N/A,,Clear,170,2012-11-19 02:35:00
8:55 PM,53.6,44.6,72,30.03,10.0,South,10.4,-,N/A,,Clear,180,2012-11-19 02:55:00
9:15 PM,53.6,44.6,72,30.04,10.0,South,9.2,-,N/A,,Clear,170,2012-11-19 03:15:00
9:35 PM,51.8,44.6,76,30.04,10.0,South,9.2,-,N/A,,Clear,170,2012-11-19 03:35:00
9:55 PM,51.8,44.6,76,30.05,10.0,South,9.2,-,N/A,,Clear,170,2012-11-19 03:55:00
10:15 PM,51.8,44.6,76,30.04,10.0,South,10.4,-,N/A,,Clear,190,2012-11-19 04:15:00
10:35 PM,51.8,44.6,76,30.04,10.0,South,10.4,-,N/A,,Clear,180,2012-11-19 04:35:00
11:15 PM,50.0,42.8,76,30.04,10.0,South,9.2,-,N/A,,Clear,190,2012-11-19 05:15:00
11:35 PM,48.2,42.8,82,30.05,10.0,South,8.1,-,N/A,,Clear,190,2012-11-19 05:35:00
11:55 PM,48.2,42.8,82,30.05,10.0,South,6.9,-,N/A,,Clear,190,2012-11-19 05:55:00